FW1299 Weather Reports


Display with metric or nautical units.
time (UTC)temp
F
wind
direction
speed
MPH
gust
MPH
rain 1hr
in
rain 24hr
in
rain mn
in
humidity
%
barometer
mb
20260831195249 76 217 0.0 0.0 0.00 0.08 0.01 85 1019.5
20260831194248 76 216 0.0 0.0 0.00 0.08 0.01 84 1019.7
20260831193248 76 217 0.0 0.0 0.00 0.08 0.01 86 1019.6
20260831191241 76 217 0.0 0.0 0.00 0.08 0.01 83 1020.1
20260831190241 76 217 0.0 1.0 0.00 0.08 0.01 83 1020.1
20260831185241 77 217 0.0 0.0 0.00 0.08 0.01 82 1020.1
20260831184237 77 217 0.0 0.0 0.00 0.08 0.01 84 1020.2
20260831183237 76 217 0.0 0.0 0.00 0.08 0.01 83 1020.1
20260831182237 77 217 0.0 0.0 0.00 0.08 0.01 82 1020.3
20260831181238 77 217 0.0 1.0 0.00 0.08 0.01 81 1020.2
20260831180239 77 259 0.0 0.0 0.00 0.08 0.01 83 1020.3
20260831175233 78 259 0.0 1.0 0.00 0.08 0.01 80 1020.4
20260831174231 78 253 0.0 0.0 0.00 0.08 0.01 82 1020.5
20260831173232 78 252 0.0 1.0 0.00 0.08 0.01 80 1020.4
20260831172231 78 249 0.0 1.0 0.00 0.08 0.01 79 1020.4
20260831171232 78 260 0.0 1.0 0.00 0.08 0.01 81 1020.3
20260831170232 78 241 0.0 1.0 0.00 0.08 0.01 82 1020.2
20260831165232 77 75 0.0 1.0 0.00 0.08 0.01 85 1020.3
20260831164232 77 79 0.0 1.0 0.00 0.08 0.01 85 1020.4
20260831163233 76 291 0.0 1.0 0.00 0.08 0.01 87 1020.3
20260831161226 75 89 0.0 0.0 0.00 0.08 0.01 91 1020.4
20260831160225 74 112 0.0 1.0 0.00 0.08 0.01 93 1020.4
20260831155225 74 114 0.0 1.0 0.00 0.08 0.01 98 1020.5
20260831153226 72 114 0.0 2.0 0.00 0.08 0.01 100 1020.5
20260831152228 72 90 0.0 1.0 0.00 0.08 0.01 100 1020.5
20260831150224 71 72 0.0 1.0 0.00 0.08 0.01 100 1020.7
20260831144224 71 72 0.0 1.0 0.00 0.08 0.01 100 1020.6
20260831143223 71 71 0.0 1.0 0.00 0.08 0.01 100 1020.7
20260831142221 70 71 0.0 0.0 0.00 0.08 0.01 100 1020.6
20260831141221 70 288 0.0 0.0 0.00 0.08 0.01 100 1020.5
20260831140222 69 278 0.0 0.0 0.00 0.08 0.01 100 1020.5
20260831135222 69 278 0.0 0.0 0.00 0.08 0.01 100 1020.6
20260831134219 70 278 0.0 0.0 0.00 0.08 0.01 100 1020.4
20260831133220 70 278 0.0 0.0 0.00 0.08 0.01 100 1020.5
20260831132220 69 278 0.0 0.0 0.00 0.08 0.01 100 1020.5
20260831131219 69 278 0.0 0.0 0.00 0.08 0.01 100 1020.5
20260831130218 69 278 0.0 0.0 0.00 0.08 0.01 100 1020.5
20260831125218 69 278 0.0 0.0 0.00 0.08 0.01 100 1020.4
20260831124219 69 278 0.0 0.0 0.00 0.08 0.01 100 1020.3
20260831122218 67 278 0.0 0.0 0.00 0.08 0.01 100 1020.4
20260831121219 68 278 0.0 0.0 0.00 0.08 0.01 100 1020.4
20260831115213 67 278 0.0 0.0 0.00 0.08 0.01 100 1020.2
20260831114211 67 278 0.0 0.0 0.00 0.08 0.01 100 1020.3
20260831113207 66 278 0.0 0.0 0.00 0.08 0.01 100 1019.9
20260831112206 66 278 0.0 0.0 0.00 0.08 0.01 100 1019.9
20260831105203 65 278 0.0 0.0 0.00 0.08 0.01 100 1019.9
20260831104205 65 278 0.0 0.0 0.00 0.08 0.01 100 1019.7
20260831103203 65 278 0.0 0.0 0.00 0.08 0.01 100 1019.8
20260831102203 65 278 0.0 0.0 0.00 0.08 0.01 100 1019.7
20260831101202 65 278 0.0 0.0 0.00 0.08 0.01 100 1019.5
20260831100203 65 278 0.0 0.0 0.01 0.08 0.01 100 1019.3
20260831094157 66 278 0.0 0.0 0.01 0.08 0.01 100 1019.2
20260831093158 66 278 0.0 0.0 0.01 0.08 0.01 100 1018.9
20260831092158 66 278 0.0 0.0 0.01 0.08 0.01 100 1019.1
20260831091158 66 278 0.0 0.0 0.01 0.08 0.01 100 1019.1
20260831085157 67 278 0.0 0.0 0.00 0.07 0.00 100 1019.1
20260831084156 67 278 0.0 0.0 0.00 0.07 0.00 100 1019.2
20260831083157 67 278 0.0 0.0 0.00 0.07 0.00 100 1019.2
20260831082157 67 278 0.0 0.0 0.00 0.07 0.00 100 1019.4
20260831081151 67 278 0.0 0.0 0.00 0.07 0.00 100 1019.3
20260831080150 67 278 0.0 0.0 0.00 0.07 0.00 100 1019.2
20260831075152 68 278 0.0 0.0 0.00 0.07 0.00 100 1019.1
20260831074151 68 278 0.0 0.0 0.00 0.07 0.00 100 1019.2
20260831073151 68 278 0.0 0.0 0.00 0.07 0.00 100 1019.1
20260831072151 69 278 0.0 0.0 0.00 0.07 0.00 100 1019.2
20260831070151 68 278 0.0 0.0 0.00 0.07 0.00 100 1019.1
20260831065153 68 278 0.0 0.0 0.00 0.07 0.00 100 1019.1
20260831064148 68 278 0.0 0.0 0.00 0.07 0.00 100 1019.1
20260831063149 68 278 0.0 0.0 0.00 0.07 0.00 100 1019.2
20260831062149 68 278 0.0 0.0 0.00 0.07 0.00 100 1019.1
20260831061147 68 278 0.0 0.0 0.00 0.07 0.00 100 1019.2
20260831060147 68 278 0.0 0.0 0.00 0.07 0.00 100 1019.5
20260831055145 68 278 0.0 0.0 0.00 0.07 0.00 100 1019.5
20260831054143 69 278 0.0 0.0 0.00 0.07 0.00 100 1019.3
20260831053141 69 278 0.0 0.0 0.00 0.07 0.00 100 1019.2
20260831052136 69 278 0.0 0.0 0.00 0.07 0.00 100 1019.3
20260831051135 69 278 0.0 0.0 0.00 0.07 0.00 100 1019.4
20260831045132 69 278 0.0 0.0 0.00 0.07 0.00 100 1019.5
20260831044132 70 278 0.0 0.0 0.00 0.07 0.00 100 1019.4
20260831043133 70 278 0.0 0.0 0.00 0.07 0.00 100 1019.4
20260831042132 70 205 0.0 0.0 0.00 0.07 0.00 100 1019.4
20260831041131 70 269 0.0 0.0 0.00 0.07 0.00 100 1019.4
20260831040130 70 269 0.0 0.0 0.00 0.07 0.00 100 1019.5
20260831035130 71 233 0.0 0.0 0.00 0.07 0.07 100 1019.3
20260831033126 71 233 0.0 0.0 0.02 0.07 0.07 100 1019.2
20260831032126 71 233 0.0 0.0 0.02 0.07 0.07 100 1019.2
20260831031126 72 233 0.0 0.0 0.02 0.07 0.07 100 1019.4
20260831030125 72 233 0.0 0.0 0.03 0.07 0.07 100 1019.1
20260831025124 72 254 0.0 0.0 0.03 0.07 0.07 100 1019.2
20260831024127 73 291 1.0 7.0 0.03 0.07 0.07 100 1019.0
20260831023127 73 239 0.0 0.0 0.01 0.05 0.05 100 1019.1
20260831021126 73 239 0.0 0.0 0.01 0.05 0.05 100 1019.1
20260831020121 73 239 0.0 0.0 0.00 0.04 0.04 100 1019.2
20260831015122 73 239 0.0 0.0 0.00 0.04 0.04 100 1019.2
20260831014121 73 239 0.0 0.0 0.00 0.04 0.04 100 1019.3
20260831013121 73 239 0.0 0.0 0.00 0.04 0.04 100 1019.3
20260831012121 73 239 0.0 0.0 0.00 0.04 0.04 100 1019.2
20260831011121 73 239 0.0 0.0 0.00 0.04 0.04 100 1019.1
20260831010119 73 239 0.0 0.0 0.00 0.04 0.04 100 1019.0
20260831005120 73 239 0.0 0.0 0.00 0.04 0.04 100 1018.8
20260831004121 73 239 0.0 0.0 0.00 0.04 0.04 100 1018.8
20260831003118 74 239 0.0 0.0 0.00 0.04 0.04 100 1018.4
20260831002112 74 239 0.0 0.0 0.00 0.04 0.04 100 1018.3
20260831000109 74 239 0.0 0.0 0.00 0.04 0.04 100 1018.4
20260830235106 74 239 0.0 0.0 0.00 0.04 0.04 100 1018.4
20260830234106 74 239 0.0 0.0 0.00 0.04 0.04 100 1018.3
20260830233107 74 239 0.0 0.0 0.00 0.04 0.04 100 1018.2
20260830232104 74 239 0.0 0.0 0.00 0.04 0.04 100 1018.4
20260830231105 75 239 0.0 0.0 0.00 0.04 0.04 100 1018.2
20260830225100 75 239 0.0 0.0 0.00 0.04 0.04 100 1018.3
20260830224101 76 239 0.0 0.0 0.00 0.04 0.04 100 1018.3
20260830221056 75 239 0.0 0.0 0.00 0.04 0.04 100 1018.2
20260830220056 76 239 0.0 0.0 0.04 0.04 0.04 100 1018.4
20260830215057 76 239 0.0 0.0 0.04 0.04 0.04 99 1018.4
20260830214056 76 239 0.0 1.0 0.04 0.04 0.04 99 1018.3
20260830213056 76 255 0.0 1.0 0.04 0.04 0.04 97 1018.2
20260830212056 77 212 0.0 1.0 0.04 0.04 0.04 96 1018.1
20260830211056 78 264 0.0 2.0 0.04 0.04 0.04 92 1018.2
20260830210057 81 202 0.0 1.0 0.00 0.00 0.00 87 1018.3
20260830205057 81 226 0.0 1.0 0.00 0.00 0.00 83 1018.2
20260830204056 82 137 0.0 2.0 0.00 0.00 0.00 83 1018.3
20260830203056 82 256 0.0 0.0 0.00 0.00 0.00 83 1018.4
20260830201054 82 253 1.0 5.0 0.00 0.00 0.00 80 1018.4
20260830200054 82 278 1.0 7.0 0.00 0.00 0.00 81 1018.6